User: anonymous   Login
Location: D�derode
(51.8092°N, 10.1065°E)
Time: 04:36:18
(UTC+00:00)
Language:

Cosmos 2219 Rocket - Orbit

View from above orbital plane
View from above orbital plane
View from above satellite
View from above satellite

Ground track
Ground track

The orbit data is extracted from the following two-line orbital elements,

1 22220U 92076B   21059.43325385  .00000220  00000-0  13448-3 0  9999
2 22220  70.9989  92.7292 0012528   2.0156  94.8169 14.16466060461928
Epoch (UTC): 28 February 2021 10:23:53
Eccentricity: 0.0012528
inclination: 70.9989°
perigee height: 828 km
apogee height: 846 km
right ascension of ascending node: 92.7292°
argument of perigee: 2.0156°
revolutions per day: 14.16466060
mean anomaly at epoch: 94.8169°
orbit number at epoch: 46192

The dashed part of the orbit path shows where the satellite is in the earth's shadow,  

DLR